Terminal Aerodrome Forecast
Issued by NWS Northern Indiana

Home | Current Version | Previous Version | Graphics & Text | Print | Product List | Glossary On
Versions: 1 2 3 4 5 6 7 8 9 10 11 12 13 14 15 16 17 18 19
000
FTUS43 KIWX 190534
TAFFWA
TAF
KFWA 190534Z 1906/2006 09005KT 5SM BR FEW035 BKN250
     FM191100 10004KT 2SM -SHRA BR OVC008
     FM191600 VRB04KT 5SM BR VCSH OVC015
     FM192100 14006KT P6SM BKN035
     FM200050 VRB03KT P6SM SCT035=

USA.gov is the U.S. government's official web portal to all federal, state and local government web resources and services.